Weather History for Bonaire, Bonaire

Change the Weather History Date:

Saturday, August 16, 2014

  Actual Average Record
Temperature  
Mean Temperature 83 °F -  
Max Temperature 89 °F 89 °F 93 °F (2008)
Min Temperature 77 °F 82 °F 77 °F (2014)
Cooling Degree Days 18    
Growing Degree Days 33 (Base 50)    
Moisture  
Dew Point 75 °F    
Average Humidity 78    
Maximum Humidity 94    
Minimum Humidity 62    
Precipitation  
Precipitation 0.00 in - - ()
Sea Level Pressure  
Sea Level Pressure 29.93 in    
Wind  
Wind Speed 12 mph ()    
Max Wind Speed 18 mph    
Max Gust Speed -    
Visibility 6.2 miles    
Events Rain    
Averages and records for this station are not official NWS values.
T = Trace of Precipitation, MM = Missing Value Source: Averaged Metar Reports

Daily Weather History Graph

Daily Weather History Graph

Search for Another Location

Airport:

Trip Planner

Search our weather history database for the weather conditions in past years. The results will help you decide how hot, cold, wet, or windy it might be!

Date:

Astronomy

Aug. 16, 2014 Rise Set
Actual Time 6:21 AM AST 6:52 PM AST
Civil Twilight 6:00 AM AST 7:14 PM AST
Nautical Twilight 5:34 AM AST 7:40 PM AST
Astronomical Twilight 5:08 AM AST 8:05 PM AST
Moon 11:50 PM AST (8/16) 11:50 AM AST (8/16)
Length of Visible Light 13h 14m
Length of Day
12h 30m
Waning Gibbous, 59% of the Moon is Illuminated
Aug 16
Waning Gibbous
Aug 17
Last Quarter
Aug 25
New
Sep 2
First Quarter
Sep 8
Full

Hourly Weather History & Observations

Time (AST) Temp. Heat Index Dew Point Humidity Pressure Visibility Wind Dir Wind Speed Gust Speed Precip Events Conditions
12:00 AM 82.4 °F 89.5 °F 75.2 °F 79% 29.95 in - ENE 15.0 mph - N/A   Unknown
1:00 AM 82.4 °F 89.5 °F 75.2 °F 79% 29.92 in - ENE 13.8 mph - N/A   Unknown
2:00 AM 82.4 °F 89.5 °F 75.2 °F 79% 29.92 in - ENE 12.7 mph - N/A   Unknown
3:00 AM 80.6 °F 86.2 °F 75.2 °F 84% 29.92 in - ENE 13.8 mph - N/A   Unknown
4:00 AM 80.6 °F 86.2 °F 75.2 °F 84% 29.89 in - ENE 9.2 mph - N/A   Unknown
5:00 AM 80.6 °F 87.1 °F 77.0 °F 89% 29.92 in - East 5.8 mph - N/A   Unknown
6:00 AM 78.8 °F - 75.2 °F 89% 29.92 in - ENE 12.7 mph - N/A   Unknown
7:00 AM 78.8 °F - 75.2 °F 89% 29.95 in - East 13.8 mph - N/A   Unknown
8:00 AM 77.0 °F - 73.4 °F 89% 29.98 in 6.2 mi ENE 18.4 mph - N/A Rain Light Rain Showers
9:00 AM 77.0 °F - 73.4 °F 89% 29.98 in 6.2 mi ENE 13.8 mph - N/A Rain Light Rain Showers
10:00 AM 78.8 °F - 77.0 °F 94% 29.98 in - ENE 3.5 mph - N/A   Unknown
11:00 AM 84.2 °F 94.1 °F 77.0 °F 79% 29.98 in - East 10.4 mph - N/A   Unknown
12:00 PM 86.0 °F 96.9 °F 77.0 °F 74% 29.95 in - ENE 12.7 mph - N/A   Unknown
1:00 PM 87.8 °F 97.6 °F 75.2 °F 66% 29.95 in 6.2 mi ENE 15.0 mph - N/A   Scattered Clouds
2:00 PM 89.6 °F 99.8 °F 75.2 °F 62% 29.92 in - NE 17.3 mph - N/A   Unknown
3:00 PM 89.6 °F 99.8 °F 75.2 °F 62% 29.92 in - NE 16.1 mph - N/A   Unknown
4:00 PM 87.8 °F 97.6 °F 75.2 °F 66% 29.89 in 6.2 mi ENE 16.1 mph - N/A   Scattered Clouds
5:00 PM 89.6 °F 99.8 °F 75.2 °F 62% 29.89 in 6.2 mi NNE 13.8 mph - N/A   Scattered Clouds
6:00 PM 86.0 °F 95.1 °F 75.2 °F 70% 29.86 in - NE 13.8 mph - N/A   Unknown
7:00 PM 84.2 °F 92.3 °F 75.2 °F 74% 29.89 in - East 12.7 mph - N/A   Unknown
8:00 PM 82.4 °F 89.5 °F 75.2 °F 79% 29.92 in - ENE 15.0 mph - N/A   Unknown
9:00 PM 82.4 °F 89.5 °F 75.2 °F 79% 29.95 in - East 12.7 mph - N/A   Unknown